contact:dominique.lefevre@mio.osupytheas.fr, maurice.libes@osupytheas.fr, didier.mallarino@osupytheas.fr
Project:EMSO http://www.emso-fr.org/EMSO-France
Depth: 2436.0 m
Title:EMSO Ligure Ouest : Data MII capteur AQUADOPP
Date,Latitude,Longitude,X_East,Y_North,Z_Up,Amplitude_X,Amplitude_Y,Amplitude_Z,Batterie,SoundSpeed,Heading,Pitch,Roll,Pressure,TIS,Speed,Direction
, degrees North, degrees East, m.s-1, m.s-1,m.s-1, 1, 1, 1, Volt, m.s-1, degree, degree, degree, dbar, degree_C, m.s-1, degree
2022-05-17T00:04:03,42.805,6.029,-0.049,0.009,-0.003,107.0,107.0,105.0,13.3,1505.2,322.4,-0.7,1.8,2470.835,13.28,0.049,280.4
2022-05-17T00:07:03,42.805,6.029,-0.042,0.028,0.023,108.0,107.0,105.0,13.3,1505.2,325.3,-0.8,1.8,2470.794,13.28,0.05,303.7
2022-05-17T00:10:03,42.805,6.029,-0.056,0.017,0.028,109.0,107.0,105.0,13.3,1505.2,332.0,-0.8,1.8,2470.782,13.28,0.058,286.9
2022-05-17T00:13:03,42.805,6.029,-0.041,0.021,0.028,108.0,107.0,104.0,13.3,1505.2,324.6,-0.8,1.8,2470.794,13.29,0.046,297.1
2022-05-17T00:16:03,42.805,6.029,-0.043,0.016,-0.012,106.0,106.0,104.0,13.3,1505.2,326.1,-0.7,1.8,2470.768,13.29,0.045,290.4
2022-05-17T00:19:03,42.805,6.029,-0.043,0.015,0.003,108.0,107.0,105.0,13.3,1505.2,332.8,-0.8,1.8,2470.797,13.29,0.045,289.2
2022-05-17T00:22:03,42.805,6.029,-0.03,0.029,-0.005,108.0,107.0,104.0,13.4,1505.2,332.4,-0.7,1.8,2470.803,13.29,0.041,314.0
2022-05-17T00:25:03,42.805,6.029,-0.067,0.03,0.018,107.0,108.0,105.0,13.4,1505.2,327.4,-0.8,1.8,2470.794,13.29,0.073,294.1
2022-05-17T00:28:03,42.805,6.029,-0.062,0.033,-0.018,107.0,106.0,104.0,13.4,1505.2,326.4,-0.8,1.8,2470.765,13.29,0.07,298.0
2022-05-17T00:31:03,42.805,6.029,-0.035,0.011,0.011,107.0,107.0,103.0,13.4,1505.2,323.8,-0.7,1.8,2470.78,13.29,0.036,287.4
2022-05-17T00:34:03,42.805,6.029,-0.035,0.038,0.008,107.0,107.0,104.0,13.4,1505.2,326.5,-0.7,1.8,2470.757,13.29,0.051,317.4
2022-05-17T00:37:03,42.805,6.029,-0.038,0.013,0.021,109.0,108.0,104.0,13.3,1505.2,327.0,-0.7,1.8,2470.779,13.29,0.04,288.9
2022-05-17T00:40:03,42.805,6.029,-0.024,0.021,-0.005,108.0,106.0,103.0,13.4,1505.2,328.8,-0.8,1.8,2470.744,13.29,0.031,311.2
2022-05-17T00:43:03,42.805,6.029,-0.033,0.011,0.015,107.0,107.0,104.0,13.4,1505.2,325.5,-0.8,1.8,2470.765,13.29,0.034,288.4
2022-05-17T00:46:03,42.805,6.029,-0.031,0.022,0.002,107.0,108.0,104.0,13.4,1505.2,331.6,-0.8,1.8,2470.771,13.29,0.038,305.4
2022-05-17T00:49:03,42.805,6.029,-0.059,0.009,0.0,107.0,107.0,104.0,13.3,1505.2,329.9,-0.8,1.9,2470.786,13.29,0.059,278.7
2022-05-17T00:52:03,42.805,6.029,-0.049,0.024,0.005,106.0,106.0,103.0,13.4,1505.2,327.3,-0.8,1.8,2470.753,13.29,0.054,296.1
2022-05-17T00:55:03,42.805,6.029,-0.053,0.051,0.006,107.0,107.0,104.0,13.4,1505.2,322.7,-0.8,1.8,2470.817,13.29,0.073,313.9
2022-05-17T00:58:03,42.805,6.029,-0.034,0.035,-0.009,107.0,107.0,103.0,13.4,1505.2,328.1,-0.7,1.9,2470.774,13.29,0.048,315.8
2022-05-17T01:04:03,42.805,6.029,-0.039,0.028,0.02,109.0,107.0,104.0,13.4,1505.2,324.5,-0.7,1.8,2470.807,13.28,0.048,305.7
2022-05-17T01:07:03,42.805,6.029,-0.029,0.004,-0.026,106.0,107.0,105.0,13.4,1505.2,322.3,-0.7,1.8,2470.777,13.28,0.029,277.8
2022-05-17T01:10:03,42.805,6.029,-0.047,0.02,0.006,110.0,107.0,106.0,13.4,1505.2,326.5,-0.8,1.8,2470.797,13.29,0.051,293.0
2022-05-17T01:13:03,42.805,6.029,-0.037,0.029,0.007,108.0,107.0,105.0,13.3,1505.2,327.5,-0.7,1.8,2470.76,13.29,0.047,308.1
2022-05-17T01:16:03,42.805,6.029,-0.038,0.022,-0.001,108.0,106.0,105.0,13.4,1505.2,322.4,-0.7,1.8,2470.774,13.29,0.043,300.1
2022-05-17T01:19:03,42.805,6.029,-0.037,0.016,0.005,109.0,107.0,103.0,13.4,1505.2,328.8,-0.7,1.8,2470.745,13.29,0.04,293.4
2022-05-17T01:22:03,42.805,6.029,-0.063,0.031,0.02,105.0,107.0,104.0,13.4,1505.2,324.9,-0.8,1.8,2470.759,13.29,0.07,296.2
2022-05-17T01:25:03,42.805,6.029,-0.042,0.029,0.003,107.0,106.0,104.0,13.3,1505.2,331.5,-0.8,1.8,2470.756,13.29,0.051,304.6
2022-05-17T01:28:03,42.805,6.029,-0.039,0.03,0.001,106.0,106.0,103.0,13.4,1505.2,323.8,-0.8,1.8,2470.751,13.29,0.049,307.6
2022-05-17T01:31:03,42.805,6.029,-0.036,0.024,0.004,107.0,106.0,104.0,13.4,1505.2,329.2,-0.8,1.9,2470.758,13.29,0.043,303.7
2022-05-17T01:34:03,42.805,6.029,-0.043,0.03,0.006,106.0,106.0,104.0,13.3,1505.2,328.3,-0.8,1.8,2470.795,13.29,0.052,304.9
2022-05-17T01:37:03,42.805,6.029,-0.04,0.03,0.007,107.0,105.0,104.0,13.3,1505.2,328.9,-0.8,1.8,2470.772,13.29,0.05,306.9
2022-05-17T01:40:03,42.805,6.029,-0.053,0.03,-0.002,107.0,104.0,103.0,13.3,1505.2,322.4,-0.8,1.8,2470.756,13.29,0.06,299.5
2022-05-17T01:43:03,42.805,6.029,-0.042,0.033,-0.001,108.0,108.0,104.0,13.4,1505.2,332.4,-0.8,1.8,2470.75,13.29,0.053,308.2
2022-05-17T01:46:03,42.805,6.029,-0.041,0.023,0.009,108.0,106.0,104.0,13.3,1505.2,325.6,-0.7,1.8,2470.77,13.29,0.047,299.3
2022-05-17T01:49:03,42.805,6.029,-0.048,0.017,0.021,106.0,108.0,104.0,13.4,1505.2,322.7,-0.8,1.8,2470.792,13.29,0.05,289.5
2022-05-17T01:52:03,42.805,6.029,-0.052,0.012,0.008,107.0,107.0,104.0,13.4,1505.2,326.8,-0.8,1.8,2470.73,13.29,0.053,283.0
2022-05-17T01:55:03,42.805,6.029,-0.059,0.034,-0.009,108.0,107.0,104.0,13.3,1505.2,328.8,-0.7,1.8,2470.761,13.29,0.068,300.0
2022-05-17T01:58:03,42.805,6.029,-0.043,0.034,0.004,108.0,108.0,105.0,13.4,1505.2,333.4,-0.8,1.8,2470.76,13.29,0.054,308.3
2022-05-17T02:04:03,42.805,6.029,-0.043,0.026,0.015,107.0,105.0,105.0,13.4,1505.2,328.8,-0.7,1.8,2470.796,13.28,0.05,301.2
2022-05-17T02:07:03,42.805,6.029,-0.041,0.036,0.049,106.0,105.0,104.0,13.4,1505.2,333.6,-0.8,1.8,2470.788,13.28,0.054,311.3
2022-05-17T02:10:03,42.805,6.029,-0.045,0.016,-0.014,105.0,106.0,104.0,13.4,1505.2,322.2,-0.8,1.8,2470.756,13.29,0.047,289.6
2022-05-17T02:13:03,42.805,6.029,-0.027,0.026,0.022,106.0,106.0,104.0,13.4,1505.2,327.3,-0.8,1.8,2470.775,13.29,0.037,313.9
2022-05-17T02:16:03,42.805,6.029,-0.036,0.027,-0.016,107.0,106.0,103.0,13.4,1505.2,331.6,-0.8,1.8,2470.741,13.29,0.045,306.9
2022-05-17T02:19:03,42.805,6.029,-0.033,0.023,-0.007,106.0,106.0,104.0,13.3,1505.2,328.8,-0.7,1.8,2470.757,13.29,0.04,304.9
2022-05-17T02:22:03,42.805,6.029,-0.026,0.017,0.021,106.0,106.0,104.0,13.4,1505.2,325.1,-0.7,1.8,2470.753,13.29,0.031,303.2
2022-05-17T02:25:03,42.805,6.029,-0.033,0.027,-0.005,107.0,106.0,104.0,13.4,1505.2,333.8,-0.8,1.9,2470.78,13.29,0.042,309.3
2022-05-17T02:28:03,42.805,6.029,-0.034,0.037,0.002,106.0,106.0,103.0,13.4,1505.2,331.5,-0.8,1.8,2470.748,13.29,0.05,317.4
2022-05-17T02:31:03,42.805,6.029,-0.035,0.026,0.022,106.0,107.0,104.0,13.3,1505.2,324.2,-0.7,1.8,2470.798,13.29,0.043,306.6
2022-05-17T02:34:03,42.805,6.029,-0.046,0.028,-0.009,106.0,106.0,103.0,13.4,1505.2,331.7,-0.7,1.8,2470.785,13.29,0.053,301.3
2022-05-17T02:37:03,42.805,6.029,-0.034,0.025,0.003,107.0,107.0,102.0,13.4,1505.2,332.8,-0.7,1.8,2470.746,13.29,0.042,306.3
2022-05-17T02:40:03,42.805,6.029,-0.039,0.019,0.002,107.0,106.0,104.0,13.4,1505.2,324.9,-0.8,1.8,2470.746,13.29,0.043,296.0
2022-05-17T02:43:03,42.805,6.029,-0.058,0.026,-0.003,106.0,106.0,103.0,13.4,1505.2,321.5,-0.7,1.8,2470.753,13.29,0.063,294.1
2022-05-17T02:46:03,42.805,6.029,-0.039,0.026,0.002,107.0,107.0,104.0,13.4,1505.2,328.9,-0.8,1.8,2470.784,13.29,0.046,303.7
2022-05-17T02:49:03,42.805,6.029,-0.035,0.009,-0.015,110.0,107.0,104.0,13.4,1505.2,324.8,-0.8,1.8,2470.777,13.29,0.036,284.4
2022-05-17T02:52:03,42.805,6.029,-0.023,0.012,-0.021,108.0,107.0,105.0,13.4,1505.2,322.4,-0.8,1.8,2470.8,13.29,0.025,297.6
2022-05-17T02:55:03,42.805,6.029,-0.033,0.03,0.014,107.0,106.0,105.0,13.4,1505.2,330.7,-0.8,1.9,2470.751,13.29,0.044,312.3
2022-05-17T02:58:03,42.805,6.029,-0.025,0.02,0.025,108.0,107.0,104.0,13.3,1505.2,327.9,-0.8,1.8,2470.749,13.29,0.032,308.7
2022-05-17T03:04:03,42.805,6.029,-0.046,0.017,0.001,107.0,107.0,104.0,13.4,1505.2,330.0,-0.8,1.8,2470.821,13.28,0.049,290.3
2022-05-17T03:07:03,42.805,6.029,-0.042,0.028,0.005,108.0,107.0,103.0,13.3,1505.2,323.8,-0.7,1.8,2470.828,13.28,0.05,303.7
2022-05-17T03:10:03,42.805,6.029,-0.041,0.02,0.01,107.0,108.0,104.0,13.4,1505.2,326.0,-0.8,1.8,2470.809,13.29,0.045,296.0
2022-05-17T03:13:03,42.805,6.029,-0.039,0.027,0.024,107.0,106.0,105.0,13.4,1505.2,328.5,-0.7,1.8,2470.767,13.29,0.047,304.7
2022-05-17T03:16:03,42.805,6.029,-0.026,0.024,-0.014,105.0,107.0,104.0,13.4,1505.2,326.1,-0.8,1.8,2470.797,13.29,0.035,312.7
2022-05-17T03:19:03,42.805,6.029,-0.045,0.038,0.007,107.0,105.0,103.0,13.4,1505.2,324.5,-0.7,1.8,2470.811,13.29,0.058,310.2
2022-05-17T03:22:03,42.805,6.029,-0.049,0.014,-0.012,105.0,107.0,104.0,13.4,1505.2,321.4,-0.8,1.8,2470.796,13.29,0.05,285.9
2022-05-17T03:25:03,42.805,6.029,-0.016,-0.004,0.0,108.0,106.0,103.0,13.4,1505.2,323.7,-0.8,1.8,2470.77,13.29,0.016,256.0
2022-05-17T03:28:03,42.805,6.029,-0.053,0.012,0.002,108.0,108.0,104.0,13.3,1505.2,323.7,-0.7,1.9,2470.772,13.29,0.054,282.8
2022-05-17T03:31:03,42.805,6.029,-0.04,0.049,0.003,108.0,106.0,104.0,13.4,1505.2,327.7,-0.8,1.8,2470.813,13.29,0.063,320.8
2022-05-17T03:34:03,42.805,6.029,-0.048,0.021,0.011,107.0,105.0,104.0,13.4,1505.2,325.4,-0.8,1.8,2470.784,13.29,0.052,293.6
2022-05-17T03:37:03,42.805,6.029,-0.042,0.014,-0.023,107.0,106.0,104.0,13.4,1505.2,324.0,-0.7,1.9,2470.792,13.29,0.044,288.4
2022-05-17T03:40:03,42.805,6.029,-0.047,0.018,0.0,106.0,105.0,105.0,13.4,1505.2,326.3,-0.7,1.8,2470.77,13.29,0.05,291.0
2022-05-17T03:43:03,42.805,6.029,-0.061,0.032,0.006,106.0,106.0,105.0,13.4,1505.2,328.8,-0.8,1.8,2470.788,13.29,0.068,297.7
2022-05-17T03:46:03,42.805,6.029,-0.053,0.022,-0.014,107.0,106.0,103.0,13.4,1505.2,328.7,-0.8,1.8,2470.784,13.29,0.057,292.5
2022-05-17T03:49:03,42.805,6.029,-0.03,0.02,-0.002,107.0,108.0,104.0,13.3,1505.2,327.7,-0.8,1.9,2470.809,13.29,0.036,303.7
2022-05-17T03:52:03,42.805,6.029,-0.047,0.034,0.031,106.0,107.0,103.0,13.4,1505.2,328.5,-0.8,1.8,2470.779,13.29,0.058,305.9
2022-05-17T03:55:03,42.805,6.029,-0.054,0.027,0.01,107.0,107.0,104.0,13.4,1505.2,321.3,-0.8,1.8,2470.799,13.29,0.06,296.6
2022-05-17T03:58:03,42.805,6.029,-0.025,0.008,0.046,107.0,106.0,103.0,13.4,1505.2,330.4,-0.7,1.9,2470.795,13.29,0.026,287.7
2022-05-17T04:04:03,42.805,6.029,-0.042,0.032,-0.007,106.0,107.0,105.0,13.3,1505.2,330.5,-0.8,1.8,2470.822,13.28,0.052,307.3
2022-05-17T04:07:03,42.805,6.029,-0.039,0.012,-0.023,107.0,107.0,104.0,13.3,1505.2,332.6,-0.8,1.8,2470.811,13.28,0.04,287.1
2022-05-17T04:10:03,42.805,6.029,-0.072,0.026,0.024,106.0,106.0,104.0,13.3,1505.2,327.1,-0.7,1.8,2470.813,13.28,0.076,289.9
2022-05-17T04:13:03,42.805,6.029,-0.046,0.026,-0.003,107.0,106.0,105.0,13.4,1505.2,321.6,-0.8,1.8,2470.829,13.28,0.052,299.5
2022-05-17T04:16:03,42.805,6.029,-0.023,0.018,-0.015,106.0,107.0,104.0,13.4,1505.2,323.9,-0.8,1.8,2470.811,13.29,0.029,308.0
2022-05-17T04:19:03,42.805,6.029,-0.047,0.029,-0.013,107.0,106.0,105.0,13.4,1505.2,331.2,-0.7,1.8,2470.832,13.29,0.055,301.7
2022-05-17T04:22:03,42.805,6.029,-0.044,0.025,0.007,108.0,107.0,103.0,13.4,1505.2,332.4,-0.8,1.8,2470.858,13.29,0.05,299.6
2022-05-17T04:25:03,42.805,6.029,-0.05,0.029,0.023,106.0,106.0,104.0,13.4,1505.2,328.6,-0.8,1.8,2470.865,13.29,0.057,300.1
2022-05-17T04:28:03,42.805,6.029,-0.029,0.016,-0.003,107.0,106.0,103.0,13.4,1505.2,328.7,-0.7,1.8,2470.876,13.29,0.033,298.9
2022-05-17T04:31:03,42.805,6.029,-0.063,0.009,0.015,107.0,107.0,103.0,13.3,1505.2,325.6,-0.7,1.8,2470.816,13.29,0.063,278.1
2022-05-17T04:34:03,42.805,6.029,-0.035,0.038,0.001,105.0,107.0,103.0,13.3,1505.2,326.5,-0.7,1.8,2470.806,13.29,0.051,317.4
2022-05-17T04:37:03,42.805,6.029,-0.044,0.024,0.016,107.0,105.0,103.0,13.4,1505.2,329.5,-0.7,1.8,2470.849,13.29,0.05,298.6
2022-05-17T04:40:03,42.805,6.029,-0.055,0.01,0.021,107.0,106.0,103.0,13.3,1505.2,327.5,-0.8,1.8,2470.853,13.29,0.055,280.3
2022-05-17T04:43:03,42.805,6.029,-0.046,0.006,-0.015,106.0,106.0,104.0,13.4,1505.2,331.6,-0.8,1.8,2470.819,13.29,0.046,277.4
2022-05-17T04:46:03,42.805,6.029,-0.044,0.002,0.029,107.0,106.0,103.0,13.4,1505.2,330.7,-0.8,1.8,2470.853,13.29,0.044,272.6
2022-05-17T04:49:03,42.805,6.029,-0.047,0.032,0.03,107.0,106.0,104.0,13.3,1505.2,329.1,-0.7,1.8,2470.897,13.29,0.056,304.2
2022-05-17T04:52:03,42.805,6.029,-0.064,0.035,-0.021,108.0,106.0,105.0,13.4,1505.2,332.4,-0.8,1.8,2470.833,13.29,0.072,298.7
2022-05-17T04:55:03,42.805,6.029,-0.031,0.039,0.002,107.0,106.0,104.0,13.4,1505.2,329.0,-0.7,1.8,2470.85,13.29,0.049,321.5
2022-05-17T04:58:03,42.805,6.029,-0.061,0.013,-0.011,107.0,106.0,104.0,13.4,1505.2,329.8,-0.8,1.8,2470.867,13.29,0.062,282.0
2022-05-17T05:04:03,42.805,6.029,-0.066,0.016,-0.028,107.0,107.0,103.0,13.4,1505.2,323.5,-0.7,1.8,2470.873,13.28,0.067,283.6
2022-05-17T05:07:03,42.805,6.029,-0.071,0.011,-0.012,107.0,105.0,104.0,13.4,1505.2,329.5,-0.8,1.8,2470.873,13.28,0.071,278.8
2022-05-17T05:10:03,42.805,6.029,-0.019,0.021,-0.014,105.0,106.0,105.0,13.4,1505.2,327.8,-0.7,1.8,2470.893,13.28,0.028,317.9
2022-05-17T05:13:03,42.805,6.029,-0.035,0.044,0.001,105.0,106.0,104.0,13.4,1505.2,329.9,-0.8,1.8,2470.923,13.28,0.056,321.5
2022-05-17T05:16:03,42.805,6.029,-0.027,0.03,0.002,105.0,108.0,102.0,13.3,1505.2,331.8,-0.8,1.8,2470.906,13.28,0.04,318.0
2022-05-17T05:19:03,42.805,6.029,-0.049,0.029,0.004,106.0,107.0,103.0,13.4,1505.2,331.3,-0.8,1.8,2470.877,13.29,0.056,300.6
2022-05-17T05:22:03,42.805,6.029,-0.054,0.032,0.034,107.0,105.0,103.0,13.4,1505.2,331.7,-0.7,1.8,2470.882,13.29,0.062,300.7
2022-05-17T05:25:03,42.805,6.029,-0.058,0.028,0.02,105.0,106.0,104.0,13.4,1505.2,327.9,-0.8,1.8,2470.855,13.29,0.064,295.8
2022-05-17T05:28:03,42.805,6.029,-0.05,0.012,0.019,107.0,106.0,105.0,13.4,1505.2,324.1,-0.7,1.8,2470.853,13.29,0.051,283.5
2022-05-17T05:31:03,42.805,6.029,-0.055,0.031,-0.002,106.0,106.0,104.0,13.3,1505.2,328.2,-0.8,1.8,2470.885,13.29,0.063,299.4
2022-05-17T05:34:03,42.805,6.029,-0.048,0.024,0.014,108.0,108.0,102.0,13.4,1505.2,328.4,-0.8,1.8,2470.862,13.29,0.053,296.6
2022-05-17T05:37:03,42.805,6.029,-0.059,0.041,0.02,106.0,107.0,103.0,13.4,1505.2,328.4,-0.7,1.8,2470.914,13.29,0.071,304.8
2022-05-17T05:40:03,42.805,6.029,-0.044,0.017,0.012,107.0,107.0,102.0,13.4,1505.2,321.2,-0.8,1.9,2470.863,13.29,0.047,291.1
2022-05-17T05:43:03,42.805,6.029,-0.015,0.033,0.006,106.0,105.0,103.0,13.3,1505.2,328.6,-0.8,1.8,2470.882,13.29,0.036,335.6
2022-05-17T05:46:03,42.805,6.029,-0.051,0.024,0.004,107.0,106.0,103.0,13.3,1505.2,329.2,-0.7,1.8,2470.892,13.29,0.056,295.2
2022-05-17T05:49:03,42.805,6.029,-0.04,0.002,0.009,106.0,106.0,103.0,13.4,1505.2,325.5,-0.8,1.8,2470.907,13.29,0.04,272.9
2022-05-17T05:52:03,42.805,6.029,-0.048,0.027,0.028,107.0,106.0,103.0,13.4,1505.2,319.9,-0.7,1.8,2470.891,13.29,0.055,299.4
2022-05-17T05:55:03,42.805,6.029,-0.038,0.022,-0.021,107.0,106.0,103.0,13.4,1505.2,326.1,-0.8,1.8,2470.863,13.29,0.043,300.1
2022-05-17T05:58:03,42.805,6.029,-0.042,-0.001,0.017,107.0,106.0,103.0,13.4,1505.2,322.3,-0.7,1.8,2470.839,13.29,0.042,268.6
2022-05-17T06:04:03,42.805,6.029,-0.042,0.002,-0.032,105.0,105.0,103.0,13.4,1505.2,326.3,-0.8,1.8,2470.905,13.28,0.042,272.7
2022-05-17T06:07:03,42.805,6.029,-0.047,0.037,0.005,107.0,105.0,103.0,13.4,1505.2,333.4,-0.8,1.8,2470.889,13.28,0.059,308.2
2022-05-17T06:10:03,42.805,6.029,-0.039,0.05,0.005,107.0,105.0,103.0,13.4,1505.2,326.3,-0.7,1.9,2470.87,13.28,0.063,322.0
2022-05-17T06:13:03,42.805,6.029,-0.06,0.017,-0.001,107.0,106.0,107.0,13.4,1505.2,321.3,-0.7,1.8,2470.856,13.28,0.062,285.8
2022-05-17T06:16:03,42.805,6.029,-0.042,0.036,0.015,106.0,107.0,103.0,13.4,1505.2,331.5,-0.7,1.8,2470.865,13.29,0.055,310.6
2022-05-17T06:19:03,42.805,6.029,-0.049,0.041,0.004,106.0,105.0,102.0,13.4,1505.2,329.1,-0.7,1.8,2470.848,13.29,0.063,309.9
2022-05-17T06:22:03,42.805,6.029,-0.047,0.038,0.029,105.0,106.0,104.0,13.4,1505.2,326.5,-0.7,1.8,2470.883,13.29,0.06,309.0
2022-05-17T06:25:03,42.805,6.029,-0.056,0.023,0.017,105.0,107.0,104.0,13.4,1505.2,327.0,-0.7,1.9,2470.885,13.29,0.06,292.3
2022-05-17T06:28:03,42.805,6.029,-0.027,0.027,-0.009,106.0,106.0,103.0,13.4,1505.2,328.3,-0.8,1.8,2470.874,13.29,0.038,315.0
2022-05-17T06:31:03,42.805,6.029,-0.059,0.021,-0.002,107.0,107.0,103.0,13.4,1505.2,326.9,-0.7,1.8,2470.844,13.29,0.062,289.6
2022-05-17T06:34:03,42.805,6.029,-0.042,0.026,0.01,105.0,107.0,103.0,13.3,1505.2,330.8,-0.8,1.8,2470.868,13.29,0.049,301.8
2022-05-17T06:37:03,42.805,6.029,-0.036,0.021,-0.026,106.0,105.0,103.0,13.4,1505.2,331.2,-0.7,1.8,2470.897,13.29,0.041,300.3
2022-05-17T06:40:03,42.805,6.029,-0.043,0.012,-0.017,106.0,106.0,102.0,13.4,1505.2,325.6,-0.8,1.8,2470.871,13.29,0.044,285.6
2022-05-17T06:43:03,42.805,6.029,-0.056,0.016,-0.017,106.0,106.0,103.0,13.3,1505.2,329.9,-0.8,1.8,2470.866,13.29,0.058,285.9
2022-05-17T06:46:03,42.805,6.029,-0.061,0.048,0.007,106.0,106.0,103.0,13.4,1505.2,332.6,-0.8,1.8,2470.881,13.29,0.077,308.2
2022-05-17T06:49:03,42.805,6.029,-0.036,0.013,0.009,106.0,105.0,104.0,13.3,1505.2,326.9,-0.7,1.8,2470.868,13.29,0.038,289.9
2022-05-17T06:52:03,42.805,6.029,-0.044,0.036,0.023,106.0,105.0,103.0,13.4,1505.2,330.4,-0.8,1.8,2470.873,13.29,0.056,309.3
2022-05-17T06:55:03,42.805,6.029,-0.045,0.029,-0.016,106.0,105.0,103.0,13.3,1505.2,326.1,-0.7,1.8,2470.884,13.29,0.053,302.8
2022-05-17T06:58:03,42.805,6.029,-0.034,0.031,0.004,107.0,105.0,103.0,13.4,1505.2,328.8,-0.8,1.8,2470.914,13.29,0.046,312.4
2022-05-17T07:04:03,42.805,6.029,-0.037,0.014,0.007,105.0,105.0,103.0,13.3,1505.2,330.9,-0.8,1.8,2470.91,13.28,0.039,290.7
2022-05-17T07:07:03,42.805,6.029,-0.043,0.038,0.017,104.0,105.0,103.0,13.4,1505.2,329.6,-0.8,1.8,2470.934,13.28,0.057,311.5
2022-05-17T07:10:03,42.805,6.029,-0.05,0.031,-0.002,105.0,107.0,102.0,13.4,1505.2,323.3,-0.8,1.8,2470.881,13.28,0.058,301.8
2022-05-17T07:13:03,42.805,6.029,-0.03,0.022,0.007,104.0,107.0,102.0,13.3,1505.2,323.1,-0.8,1.8,2470.903,13.28,0.037,306.3
2022-05-17T07:16:03,42.805,6.029,-0.039,0.029,-0.004,105.0,106.0,103.0,13.4,1505.2,326.3,-0.7,1.8,2470.885,13.29,0.048,306.6
2022-05-17T07:19:03,42.805,6.029,-0.062,0.008,0.0,108.0,106.0,102.0,13.3,1505.2,328.4,-0.8,1.8,2470.867,13.29,0.062,277.3
2022-05-17T07:22:03,42.805,6.029,-0.053,0.021,0.01,105.0,105.0,103.0,13.4,1505.2,321.3,-0.8,1.8,2470.87,13.29,0.057,291.6
2022-05-17T07:25:03,42.805,6.029,-0.037,0.022,0.028,104.0,107.0,103.0,13.3,1505.2,329.3,-0.8,1.8,2470.917,13.29,0.043,300.7
2022-05-17T07:28:03,42.805,6.029,-0.034,0.017,0.032,107.0,107.0,102.0,13.4,1505.2,327.5,-0.8,1.8,2470.867,13.29,0.038,296.6
2022-05-17T07:31:03,42.805,6.029,-0.033,0.038,0.04,105.0,106.0,103.0,13.3,1505.2,328.4,-0.7,1.8,2470.897,13.29,0.05,319.0
2022-05-17T07:34:03,42.805,6.029,-0.054,0.033,-0.007,107.0,105.0,103.0,13.3,1505.2,322.4,-0.7,1.8,2470.883,13.29,0.063,301.4
2022-05-17T07:37:03,42.805,6.029,-0.035,0.014,0.008,105.0,107.0,101.0,13.4,1505.2,322.4,-0.7,1.8,2470.898,13.29,0.037,291.8
2022-05-17T07:40:03,42.805,6.029,-0.054,0.022,-0.006,106.0,106.0,101.0,13.3,1505.2,330.5,-0.8,1.8,2470.881,13.29,0.058,292.2
2022-05-17T07:43:03,42.805,6.029,-0.06,0.024,-0.008,105.0,105.0,103.0,13.3,1505.2,323.1,-0.8,1.8,2470.888,13.29,0.064,291.8
2022-05-17T07:46:03,42.805,6.029,-0.023,0.029,0.023,104.0,107.0,102.0,13.4,1505.2,328.5,-0.7,1.8,2470.874,13.29,0.037,321.6
2022-05-17T07:49:03,42.805,6.029,-0.037,0.019,0.026,106.0,107.0,103.0,13.4,1505.2,329.1,-0.8,1.8,2470.883,13.29,0.041,297.2
2022-05-17T07:52:03,42.805,6.029,-0.03,0.014,-0.013,102.0,106.0,103.0,13.3,1505.2,326.1,-0.8,1.8,2470.911,13.29,0.033,295.0
2022-05-17T07:55:03,42.805,6.029,-0.042,0.023,0.025,104.0,106.0,102.0,13.4,1505.2,325.1,-0.8,1.8,2470.895,13.29,0.047,298.7
2022-05-17T07:58:03,42.805,6.029,-0.039,0.038,0.02,106.0,104.0,102.0,13.3,1505.2,325.4,-0.8,1.8,2470.89,13.29,0.054,314.3
2022-05-17T08:04:03,42.805,6.029,-0.028,0.026,0.007,104.0,106.0,102.0,13.4,1505.2,323.1,-0.7,1.8,2470.944,13.28,0.038,312.9
2022-05-17T08:07:03,42.805,6.029,-0.055,0.045,0.014,105.0,105.0,102.0,13.3,1505.2,324.9,-0.7,1.8,2470.884,13.28,0.071,309.3
2022-05-17T08:10:03,42.805,6.029,-0.03,0.002,0.005,106.0,105.0,102.0,13.4,1505.2,324.6,-0.7,1.8,2470.921,13.28,0.03,273.8
2022-05-17T08:13:03,42.805,6.029,-0.033,0.012,-0.001,104.0,104.0,103.0,13.4,1505.2,328.9,-0.8,1.9,2470.928,13.28,0.035,290.0
2022-05-17T08:16:03,42.805,6.029,-0.059,0.004,0.007,104.0,104.0,104.0,13.4,1505.2,325.3,-0.8,1.8,2470.882,13.29,0.059,273.9
2022-05-17T08:19:03,42.805,6.029,-0.05,0.014,-0.009,105.0,106.0,103.0,13.4,1505.2,328.7,-0.8,1.8,2470.918,13.29,0.051,285.6
2022-05-17T08:22:03,42.805,6.029,-0.035,0.003,-0.011,105.0,105.0,103.0,13.3,1505.2,324.8,-0.8,1.8,2470.898,13.29,0.035,274.9
2022-05-17T08:25:03,42.805,6.029,-0.04,0.021,0.0,106.0,104.0,104.0,13.3,1505.2,323.1,-0.7,1.8,2470.882,13.29,0.045,297.7
2022-05-17T08:28:03,42.805,6.029,-0.021,0.037,0.064,107.0,104.0,103.0,13.4,1505.2,322.8,-0.7,1.8,2470.912,13.29,0.042,330.4
2022-05-17T08:31:03,42.805,6.029,-0.047,0.019,-0.012,104.0,106.0,102.0,13.4,1505.2,331.0,-0.7,1.8,2470.885,13.29,0.05,292.0
2022-05-17T08:34:03,42.805,6.029,-0.031,0.031,0.029,104.0,106.0,102.0,13.4,1505.2,325.2,-0.7,1.8,2470.911,13.29,0.043,315.0
2022-05-17T08:37:03,42.805,6.029,-0.034,0.023,0.002,105.0,105.0,102.0,13.4,1505.2,323.5,-0.7,1.8,2470.86,13.29,0.041,304.1
2022-05-17T08:40:03,42.805,6.029,-0.042,0.029,0.012,105.0,104.0,102.0,13.3,1505.2,324.4,-0.7,1.8,2470.901,13.29,0.051,304.6
2022-05-17T08:43:03,42.805,6.029,-0.047,0.037,0.034,104.0,104.0,102.0,13.4,1505.2,331.0,-0.8,1.9,2470.885,13.29,0.059,308.2
2022-05-17T08:46:03,42.805,6.029,-0.043,0.017,-0.027,103.0,106.0,104.0,13.4,1505.2,325.4,-0.8,1.8,2470.887,13.29,0.046,291.6
2022-05-17T08:49:03,42.805,6.029,-0.038,0.007,0.01,104.0,106.0,102.0,13.3,1505.2,323.0,-0.7,1.8,2470.889,13.29,0.038,280.4
2022-05-17T08:52:03,42.805,6.029,-0.038,0.044,0.021,104.0,106.0,102.0,13.4,1505.2,323.8,-0.8,1.9,2470.851,13.29,0.058,319.2
2022-05-17T08:55:03,42.805,6.029,-0.033,0.015,0.014,104.0,107.0,102.0,13.4,1505.2,331.6,-0.7,1.8,2470.864,13.29,0.036,294.4
2022-05-17T08:58:03,42.805,6.029,-0.041,0.04,0.017,104.0,105.0,103.0,13.4,1505.2,321.3,-0.8,1.8,2470.91,13.29,0.057,314.3
2022-05-17T09:04:03,42.805,6.029,-0.04,0.023,0.015,103.0,107.0,101.0,13.4,1505.2,324.1,-0.8,1.8,2470.919,13.28,0.046,299.9
2022-05-17T09:07:03,42.805,6.029,-0.031,0.015,0.013,105.0,105.0,103.0,13.4,1505.2,325.8,-0.8,1.8,2470.896,13.28,0.034,295.8
2022-05-17T09:10:03,42.805,6.029,-0.049,0.036,0.026,104.0,105.0,102.0,13.4,1505.2,329.0,-0.8,1.8,2470.91,13.28,0.06,306.3
2022-05-17T09:13:03,42.805,6.029,-0.035,0.023,0.012,104.0,104.0,101.0,13.4,1505.2,321.4,-0.8,1.8,2470.877,13.29,0.041,303.3
2022-05-17T09:16:03,42.805,6.029,-0.018,0.024,0.028,106.0,104.0,102.0,13.3,1505.2,327.4,-0.8,1.8,2470.866,13.29,0.03,323.1
2022-05-17T09:19:03,42.805,6.029,-0.033,0.019,-0.018,104.0,104.0,103.0,13.3,1505.2,329.4,-0.8,1.8,2470.887,13.29,0.038,299.9
2022-05-17T09:22:03,42.805,6.029,-0.025,0.011,0.014,103.0,103.0,103.0,13.4,1505.2,329.1,-0.8,1.8,2470.889,13.29,0.027,293.7
2022-05-17T09:25:03,42.805,6.029,-0.048,0.013,0.009,105.0,104.0,103.0,13.3,1505.2,324.5,-0.8,1.8,2470.881,13.29,0.049,285.2
2022-05-17T09:28:03,42.805,6.029,-0.057,0.027,0.021,104.0,105.0,102.0,13.4,1505.2,327.2,-0.8,1.9,2470.893,13.29,0.063,295.3
2022-05-17T09:31:03,42.805,6.029,-0.044,0.004,0.013,104.0,104.0,103.0,13.4,1505.2,321.0,-0.8,1.8,2470.881,13.29,0.044,275.2
2022-05-17T09:34:03,42.805,6.029,-0.018,0.016,0.013,106.0,104.0,103.0,13.3,1505.2,323.5,-0.7,1.8,2470.853,13.29,0.024,311.6
2022-05-17T09:37:03,42.805,6.029,-0.04,0.011,-0.036,105.0,105.0,102.0,13.4,1505.2,331.9,-0.8,1.8,2470.848,13.29,0.041,285.4
2022-05-17T09:40:03,42.805,6.029,-0.058,0.027,0.005,105.0,105.0,103.0,13.4,1505.2,328.2,-0.8,1.8,2470.902,13.29,0.063,295.0
2022-05-17T09:43:03,42.805,6.029,-0.051,0.013,-0.006,103.0,106.0,102.0,13.3,1505.2,329.5,-0.7,1.8,2470.901,13.29,0.052,284.3
2022-05-17T09:46:03,42.805,6.029,-0.048,0.04,0.039,103.0,105.0,103.0,13.4,1505.2,332.0,-0.8,1.8,2470.865,13.29,0.062,309.8
2022-05-17T09:49:03,42.805,6.029,-0.039,0.049,0.003,106.0,105.0,102.0,13.3,1505.2,322.2,-0.8,1.8,2470.855,13.29,0.062,321.5
2022-05-17T09:52:03,42.805,6.029,-0.044,0.019,-0.023,105.0,106.0,102.0,13.4,1505.2,327.8,-0.7,1.9,2470.852,13.29,0.047,293.4
2022-05-17T09:55:03,42.805,6.029,-0.057,0.018,0.033,103.0,105.0,103.0,13.3,1505.2,326.4,-0.7,1.8,2470.841,13.29,0.059,287.5